Location: Newark
(42.8481°N, 0.4872°E)
Time: 23:39:24
(UTC+00:00)

Vanguard 1 - Pass Details

Date: 28 October 2020
Orbit: 650 x 3833 km, 34.2° (Epoch: 29 November)

Event Time Altitude Azimuth Distance (km) Brightness Sun altitude
Rises 13:56:29 0° 250° (WSW) 7,665 15.5 25.9°
Reaches altitude 10° 14:01:29 10° 247° (WSW) 6,814 15.5 25.3°
Maximum altitude 14:24:41 65° 173° (S) 3,792 13.7 22.5°
Drops below altitude 10° 14:42:05 10° 97° (E) 5,334 13.5 20.2°
Sets 14:45:27 0° 94° (E) 6,003 13.7 19.8°
